"Period start","avg(HW err(1)/warn(2) (#))","avg(Visibility (m))","avg(Weather code (#))","avg(Precip intensity (mm/h))","min(HW err(1)/warn(2) (#))","max(HW err(1)/warn(2) (#))","std(HW err(1)/warn(2) (#))","med(HW err(1)/warn(2) (#))","min(Visibility (m))","max(Visibility (m))","std(Visibility (m))","med(Visibility (m))","min(Weather code (#))","max(Weather code (#))","std(Weather code (#))","med(Weather code (#))","min(Precip intensity (mm/h))","max(Precip intensity (mm/h))","std(Precip intensity (mm/h))","med(Precip intensity (mm/h))"
2017-10-25 00:00:00,2,28374,38,0.00,2,2,0,2,17284,43707,9899,26812,0,78,38,36,0.00,0.00,0.00,0.00
2017-10-25 00:10:00,2,45575,0,0.00,2,2,0,2,38129,50000,3919,46108,0,0,0,0,0.00,0.00,0.00,0.00
2017-10-25 00:20:00,2,40127,0,0.00,2,2,0,2,14502,50000,12580,47900,0,0,0,0,0.00,0.00,0.00,0.00
2017-10-25 00:30:00,2,35466,30,0.00,2,2,0,2,25816,45776,7461,35020,0,78,37,0,0.00,0.00,0.00,0.00
2017-10-25 00:40:00,2,22031,38,0.00,2,2,0,2,11236,33365,7128,21534,0,78,38,36,0.00,0.00,0.00,0.00
2017-10-25 00:50:00,2,24496,76,0.01,2,2,0,2,13375,36936,8875,20554,71,78,3,78,0.00,0.15,0.05,0.00
2017-10-25 01:00:00,2,17421,75,0.02,2,2,0,2,10793,24579,4005,18021,71,77,3,77,0.00,0.20,0.06,0.00
2017-10-25 01:10:00,2,29061,53,0.00,2,2,0,2,13279,49506,12855,25205,0,78,35,74,0.00,0.00,0.00,0.00
2017-10-25 01:20:00,2,23003,37,0.02,2,2,0,2,13105,38285,7639,20826,0,77,37,36,0.00,0.10,0.03,0.00
2017-10-25 01:30:00,2,12051,73,0.03,2,2,0,2,8146,16917,3018,11854,71,77,3,71,0.00,0.25,0.07,0.00
2017-10-25 01:40:00,2,25958,76,0.00,2,2,0,2,10614,39066,9776,28712,71,78,3,78,0.00,0.00,0.00,0.00
2017-10-25 01:50:00,2,33203,39,0.01,2,2,0,2,23885,40749,4995,32986,0,78,39,39,0.00,0.05,0.02,0.00
2017-10-25 02:00:00,2,27924,7,0.00,2,2,0,2,20361,36760,4328,28160,0,71,21,0,0.00,0.00,0.00,0.00
2017-10-25 02:10:00,2,27843,77,0.00,2,2,0,2,17498,36230,5380,27894,71,78,2,77,0.00,0.00,0.00,0.00
2017-10-25 02:20:00,2,21520,78,0.00,2,2,0,2,14978,32498,4756,20375,77,78,0,78,0.00,0.00,0.00,0.00
2017-10-25 02:30:00,2,17414,77,0.01,2,2,0,2,10323,25211,4913,18288,77,78,0,77,0.00,0.05,0.02,0.00
2017-10-25 02:40:00,2,33849,31,0.01,2,2,0,2,14161,43805,10032,36960,0,78,38,0,0.00,0.05,0.02,0.00
2017-10-25 02:50:00,2,40982,0,0.00,2,2,0,2,30887,50000,6417,41636,0,0,0,0,0.00,0.00,0.00,0.00
2017-10-25 03:00:00,2,40117,0,0.00,2,2,0,2,35146,47390,3603,39998,0,0,0,0,0.00,0.00,0.00,0.00
2017-10-25 03:10:00,2,31256,0,0.00,2,2,0,2,20115,38832,6613,32649,0,0,0,0,0.00,0.00,0.00,0.00
2017-10-25 03:20:00,2,33730,0,0.00,2,2,0,2,17372,44076,8640,36106,0,0,0,0,0.00,0.00,0.00,0.00
2017-10-25 03:30:00,2,25558,0,0.00,2,2,0,2,15327,33791,5891,26288,0,0,0,0,0.00,0.00,0.00,0.00
2017-10-25 03:40:00,2,39697,0,0.00,2,2,0,2,23547,50000,8324,38676,0,0,0,0,0.00,0.00,0.00,0.00
2017-10-25 03:50:00,2,49239,0,0.00,2,2,0,2,45847,50000,1403,50000,0,0,0,0,0.00,0.00,0.00,0.00
2017-10-25 04:00:00,2,49055,0,0.00,2,2,0,2,43115,50000,2059,50000,0,0,0,0,0.00,0.00,0.00,0.00
2017-10-25 04:10:00,2,40542,0,0.00,2,2,0,2,26809,50000,8337,41684,0,0,0,0,0.00,0.00,0.00,0.00
2017-10-25 04:20:00,2,48985,0,0.00,2,2,0,2,44508,50000,1660,50000,0,0,0,0,0.00,0.00,0.00,0.00
2017-10-25 04:30:00,2,48374,0,0.00,2,2,0,2,44267,50000,2120,48944,0,0,0,0,0.00,0.00,0.00,0.00
2017-10-25 04:40:00,2,35382,0,0.00,2,2,0,2,16765,50000,10119,34920,0,0,0,0,0.00,0.00,0.00,0.00
2017-10-25 04:50:00,2,39920,22,0.00,2,2,0,2,13965,50000,12124,45294,0,78,34,0,0.00,0.00,0.00,0.00
2017-10-25 05:00:00,2,42472,0,0.00,2,2,0,2,12656,50000,11725,48466,0,0,0,0,0.00,0.00,0.00,0.00
2017-10-25 05:10:00,2,48318,0,0.00,2,2,0,2,44823,50000,1922,49040,0,0,0,0,0.00,0.00,0.00,0.00
2017-10-25 05:20:00,2,49448,0,0.00,2,2,0,2,45821,50000,1274,50000,0,0,0,0,0.00,0.00,0.00,0.00
2017-10-25 05:30:00,2,50000,0,0.00,2,2,0,2,50000,50000,0,50000,0,0,0,0,0.00,0.00,0.00,0.00
2017-10-25 05:40:00,2,48292,0,0.00,2,2,0,2,43664,50000,2637,50000,0,0,0,0,0.00,0.00,0.00,0.00
2017-10-25 05:50:00,2,49643,0,0.00,2,2,0,2,46618,50000,1010,50000,0,0,0,0,0.00,0.00,0.00,0.00
2017-10-25 06:00:00,2,46390,0,0.00,2,2,0,2,41306,50000,3260,46143,0,0,0,0,0.00,0.00,0.00,0.00
2017-10-25 06:10:00,2,29881,7,0.00,2,2,0,2,23202,38098,5516,28510,0,71,21,0,0.00,0.00,0.00,0.00
2017-10-25 06:20:00,2,28836,15,0.00,2,2,0,2,16930,49354,11390,22898,0,78,30,0,0.00,0.00,0.00,0.00
2017-10-25 06:30:00,2,14581,76,0.03,2,2,0,2,10253,20895,3338,13438,71,77,2,77,0.00,0.15,0.06,0.00
2017-10-25 06:40:00,2,8413,72,0.07,2,2,0,2,4729,14533,2977,7628,71,77,2,71,0.00,0.20,0.06,0.05
2017-10-25 06:50:00,2,7529,71,0.12,2,2,0,2,4802,10813,1931,7496,71,71,0,71,0.05,0.35,0.09,0.10
2017-10-25 07:00:00,2,8325,71,0.14,2,2,0,2,6487,10417,1253,8090,71,71,0,71,0.05,0.25,0.08,0.15
2017-10-25 07:10:00,2,5887,71,0.48,2,2,0,2,2412,8645,1619,6030,71,71,0,71,0.15,1.00,0.27,0.42
2017-10-25 07:20:00,2,7031,71,0.45,2,2,0,2,5162,9179,1467,6896,71,71,0,71,0.10,1.00,0.29,0.40
2017-10-25 07:30:00,2,7164,71,0.48,2,2,0,2,4536,9841,1886,7080,71,71,0,71,0.05,0.95,0.33,0.33
2017-10-25 07:40:00,2,8783,71,0.36,2,2,0,2,5673,11926,1873,8192,71,71,0,71,0.05,1.00,0.28,0.28
2017-10-25 07:50:00,2,7537,71,0.51,2,2,0,2,3576,13001,2545,7536,71,71,0,71,0.20,1.10,0.32,0.45
2017-10-25 08:00:00,2,7968,71,0.62,2,2,0,2,6311,10237,1112,7967,71,71,0,71,0.25,1.00,0.24,0.60
2017-10-25 08:10:00,2,5666,71,0.92,2,2,0,2,4247,7895,994,5474,71,71,0,71,0.45,1.75,0.42,0.88
2017-10-25 08:20:00,2,8958,71,0.38,2,2,0,2,6371,11686,1764,9030,71,71,0,71,0.05,1.05,0.33,0.20
2017-10-25 08:30:00,2,22421,72,0.08,2,2,0,2,9806,33442,8718,24576,71,77,2,71,0.00,0.50,0.15,0.03
2017-10-25 08:40:00,2,22675,74,0.05,2,2,0,2,12277,34983,7971,18836,71,78,3,74,0.00,0.15,0.05,0.05
2017-10-25 08:50:00,2,24988,71,0.06,2,2,0,2,19449,31985,4335,23756,71,71,0,71,0.00,0.35,0.10,0.00
2017-10-25 09:00:00,2,37842,72,0.03,2,2,0,2,20813,50000,9945,40826,71,77,2,71,0.00,0.15,0.05,0.00
2017-10-25 09:10:00,2,43126,78,0.00,2,2,0,2,34045,50000,6120,44044,77,78,0,78,0.00,0.00,0.00,0.00
2017-10-25 09:20:00,2,36652,75,0.01,2,2,0,2,29038,47139,5429,37672,71,78,3,77,0.00,0.10,0.03,0.00
2017-10-25 09:30:00,2,49770,78,0.00,2,2,0,2,47704,50000,689,50000,78,78,0,78,0.00,0.00,0.00,0.00
2017-10-25 09:40:00,2,50000,0,0.00,2,2,0,2,50000,50000,0,50000,0,0,0,0,0.00,0.00,0.00,0.00
2017-10-25 09:50:00,2,50000,0,0.00,2,2,0,2,50000,50000,0,50000,0,0,0,0,0.00,0.00,0.00,0.00
2017-10-25 10:00:00,2,50000,0,0.00,2,2,0,2,50000,50000,0,50000,0,0,0,0,0.00,0.00,0.00,0.00
2017-10-25 10:10:00,2,49978,0,0.00,2,2,0,2,49785,50000,64,50000,0,0,0,0,0.00,0.00,0.00,0.00
2017-10-25 10:20:00,2,50000,0,0.00,2,2,0,2,50000,50000,0,50000,0,0,0,0,0.00,0.00,0.00,0.00
2017-10-25 10:30:00,2,50000,0,0.00,2,2,0,2,50000,50000,0,50000,0,0,0,0,0.00,0.00,0.00,0.00
2017-10-25 10:40:00,2,50000,0,0.00,2,2,0,2,50000,50000,0,50000,0,0,0,0,0.00,0.00,0.00,0.00
2017-10-25 10:50:00,2,50000,0,0.00,2,2,0,2,50000,50000,0,50000,0,0,0,0,0.00,0.00,0.00,0.00
2017-10-25 11:00:00,2,50000,0,0.00,2,2,0,2,50000,50000,0,50000,0,0,0,0,0.00,0.00,0.00,0.00
2017-10-25 11:10:00,2,50000,0,0.00,2,2,0,2,50000,50000,0,50000,0,0,0,0,0.00,0.00,0.00,0.00
2017-10-25 11:20:00,2,50000,0,0.00,2,2,0,2,50000,50000,0,50000,0,0,0,0,0.00,0.00,0.00,0.00
2017-10-25 11:30:00,2,50000,0,0.00,2,2,0,2,50000,50000,0,50000,0,0,0,0,0.00,0.00,0.00,0.00
2017-10-25 11:40:00,2,50000,0,0.00,2,2,0,2,50000,50000,0,50000,0,0,0,0,0.00,0.00,0.00,0.00
2017-10-25 11:50:00,2,50000,0,0.00,2,2,0,2,50000,50000,0,50000,0,0,0,0,0.00,0.00,0.00,0.00
2017-10-25 12:00:00,2,49795,0,0.00,2,2,0,2,47954,50000,614,50000,0,0,0,0,0.00,0.00,0.00,0.00
2017-10-25 12:10:00,2,50000,0,0.00,2,2,0,2,50000,50000,0,50000,0,0,0,0,0.00,0.00,0.00,0.00
2017-10-25 12:20:00,2,48660,0,0.00,2,2,0,2,43505,50000,2452,49944,0,0,0,0,0.00,0.00,0.00,0.00
2017-10-25 12:30:00,2,49164,0,0.00,2,2,0,2,45015,50000,1710,50000,0,0,0,0,0.00,0.00,0.00,0.00
2017-10-25 12:40:00,2,50000,0,0.00,2,2,0,2,50000,50000,0,50000,0,0,0,0,0.00,0.00,0.00,0.00
2017-10-25 12:50:00,2,50000,0,0.00,2,2,0,2,50000,50000,0,50000,0,0,0,0,0.00,0.00,0.00,0.00
2017-10-25 13:00:00,2,50000,0,0.00,2,2,0,2,50000,50000,0,50000,0,0,0,0,0.00,0.00,0.00,0.00
2017-10-25 13:10:00,2,50000,0,0.00,2,2,0,2,50000,50000,0,50000,0,0,0,0,0.00,0.00,0.00,0.00
2017-10-25 13:20:00,2,50000,0,0.00,2,2,0,2,50000,50000,0,50000,0,0,0,0,0.00,0.00,0.00,0.00
2017-10-25 13:30:00,2,50000,0,0.00,2,2,0,2,50000,50000,0,50000,0,0,0,0,0.00,0.00,0.00,0.00
2017-10-25 13:40:00,2,50000,0,0.00,2,2,0,2,50000,50000,0,50000,0,0,0,0,0.00,0.00,0.00,0.00
2017-10-25 13:50:00,2,50000,0,0.00,2,2,0,2,50000,50000,0,50000,0,0,0,0,0.00,0.00,0.00,0.00
2017-10-25 14:00:00,2,50000,0,0.00,2,2,0,2,50000,50000,0,50000,0,0,0,0,0.00,0.00,0.00,0.00
2017-10-25 14:10:00,2,50000,0,0.00,2,2,0,2,50000,50000,0,50000,0,0,0,0,0.00,0.00,0.00,0.00
2017-10-25 14:20:00,2,50000,0,0.00,2,2,0,2,50000,50000,0,50000,0,0,0,0,0.00,0.00,0.00,0.00
2017-10-25 14:30:00,2,50000,0,0.00,2,2,0,2,50000,50000,0,50000,0,0,0,0,0.00,0.00,0.00,0.00
2017-10-25 14:40:00,2,50000,0,0.00,2,2,0,2,50000,50000,0,50000,0,0,0,0,0.00,0.00,0.00,0.00
2017-10-25 14:50:00,2,50000,0,0.00,2,2,0,2,50000,50000,0,50000,0,0,0,0,0.00,0.00,0.00,0.00
2017-10-25 15:00:00,2,50000,0,0.00,2,2,0,2,50000,50000,0,50000,0,0,0,0,0.00,0.00,0.00,0.00
2017-10-25 15:10:00,2,50000,0,0.00,2,2,0,2,50000,50000,0,50000,0,0,0,0,0.00,0.00,0.00,0.00
2017-10-25 15:20:00,2,50000,0,0.00,2,2,0,2,50000,50000,0,50000,0,0,0,0,0.00,0.00,0.00,0.00
2017-10-25 15:30:00,2,50000,0,0.00,2,2,0,2,50000,50000,0,50000,0,0,0,0,0.00,0.00,0.00,0.00
2017-10-25 15:40:00,2,50000,0,0.00,2,2,0,2,50000,50000,0,50000,0,0,0,0,0.00,0.00,0.00,0.00
2017-10-25 15:50:00,2,50000,0,0.00,2,2,0,2,50000,50000,0,50000,0,0,0,0,0.00,0.00,0.00,0.00
2017-10-25 16:00:00,2,50000,0,0.00,2,2,0,2,50000,50000,0,50000,0,0,0,0,0.00,0.00,0.00,0.00
2017-10-25 16:10:00,2,50000,0,0.00,2,2,0,2,50000,50000,0,50000,0,0,0,0,0.00,0.00,0.00,0.00
2017-10-25 16:20:00,2,50000,0,0.00,2,2,0,2,50000,50000,0,50000,0,0,0,0,0.00,0.00,0.00,0.00
2017-10-25 16:30:00,2,50000,0,0.00,2,2,0,2,50000,50000,0,50000,0,0,0,0,0.00,0.00,0.00,0.00
2017-10-25 16:40:00,2,50000,0,0.00,2,2,0,2,50000,50000,0,50000,0,0,0,0,0.00,0.00,0.00,0.00
2017-10-25 16:50:00,2,50000,0,0.00,2,2,0,2,50000,50000,0,50000,0,0,0,0,0.00,0.00,0.00,0.00
2017-10-25 17:00:00,2,50000,0,0.00,2,2,0,2,50000,50000,0,50000,0,0,0,0,0.00,0.00,0.00,0.00
2017-10-25 17:10:00,2,50000,0,0.00,2,2,0,2,50000,50000,0,50000,0,0,0,0,0.00,0.00,0.00,0.00
2017-10-25 17:20:00,2,50000,0,0.00,2,2,0,2,50000,50000,0,50000,0,0,0,0,0.00,0.00,0.00,0.00
2017-10-25 17:30:00,2,50000,0,0.00,2,2,0,2,50000,50000,0,50000,0,0,0,0,0.00,0.00,0.00,0.00
2017-10-25 17:40:00,2,50000,0,0.00,2,2,0,2,50000,50000,0,50000,0,0,0,0,0.00,0.00,0.00,0.00
2017-10-25 17:50:00,2,50000,0,0.00,2,2,0,2,50000,50000,0,50000,0,0,0,0,0.00,0.00,0.00,0.00
2017-10-25 18:00:00,2,50000,0,0.00,2,2,0,2,50000,50000,0,50000,0,0,0,0,0.00,0.00,0.00,0.00
2017-10-25 18:10:00,2,50000,0,0.00,2,2,0,2,50000,50000,0,50000,0,0,0,0,0.00,0.00,0.00,0.00
2017-10-25 18:20:00,2,50000,0,0.00,2,2,0,2,50000,50000,0,50000,0,0,0,0,0.00,0.00,0.00,0.00
2017-10-25 18:30:00,2,50000,0,0.00,2,2,0,2,50000,50000,0,50000,0,0,0,0,0.00,0.00,0.00,0.00
2017-10-25 18:40:00,2,24306,0,0.00,2,2,0,2,11778,40592,8591,22491,0,0,0,0,0.00,0.00,0.00,0.00
2017-10-25 18:50:00,2,49269,0,0.00,2,2,0,2,44174,50000,1755,50000,0,0,0,0,0.00,0.00,0.00,0.00
2017-10-25 19:00:00,2,33696,0,0.00,2,2,0,2,22343,49905,8937,29716,0,0,0,0,0.00,0.00,0.00,0.00
2017-10-25 19:10:00,2,45896,0,0.00,2,2,0,2,29963,50000,6152,49132,0,0,0,0,0.00,0.00,0.00,0.00
2017-10-25 19:20:00,2,27484,0,0.00,2,2,0,2,13930,50000,11397,23492,0,0,0,0,0.00,0.00,0.00,0.00
2017-10-25 19:30:00,2,20350,0,0.00,2,2,0,2,14173,34638,5585,20174,0,0,0,0,0.00,0.00,0.00,0.00
2017-10-25 19:40:00,2,12195,0,0.00,2,2,0,2,5277,26262,6161,9051,0,0,0,0,0.00,0.00,0.00,0.00
2017-10-25 19:50:00,2,9037,9,0.00,2,2,0,2,6889,15183,2258,8665,0,10,3,10,0.00,0.00,0.00,0.00
2017-10-25 20:00:00,2,14306,9,0.00,2,2,0,2,8674,22342,4777,13142,0,10,3,10,0.00,0.00,0.00,0.00
2017-10-25 20:10:00,2,22588,0,0.00,2,2,0,2,17319,27846,3326,23348,0,0,0,0,0.00,0.00,0.00,0.00
2017-10-25 20:20:00,2,21497,0,0.00,2,2,0,2,15904,27835,3477,21107,0,0,0,0,0.00,0.00,0.00,0.00
2017-10-25 20:30:00,2,16994,0,0.00,2,2,0,2,10594,23346,4150,16830,0,0,0,0,0.00,0.00,0.00,0.00
2017-10-25 20:40:00,2,10336,45,0.01,2,2,0,2,7964,13503,1773,10307,0,78,37,71,0.00,0.05,0.02,0.00
2017-10-25 20:50:00,2,6417,78,0.05,2,2,0,2,5434,7879,636,6266,78,78,0,78,0.00,0.10,0.03,0.05
2017-10-25 21:00:00,2,4898,78,0.10,2,2,0,2,4067,6094,615,4756,78,78,0,78,0.05,0.25,0.06,0.10
2017-10-25 21:10:00,2,4001,73,0.36,2,2,0,2,3150,5084,617,4079,71,78,3,71,0.30,0.45,0.06,0.35
2017-10-25 21:20:00,2,4060,76,0.29,2,2,0,2,3582,4815,431,4058,71,78,2,77,0.10,0.65,0.14,0.28
2017-10-25 21:30:00,2,3830,72,0.31,2,2,0,2,2951,4243,359,3874,71,78,2,71,0.15,0.50,0.13,0.28
2017-10-25 21:40:00,2,3349,71,0.45,2,2,0,2,2249,3947,458,3459,71,71,0,71,0.10,0.60,0.14,0.50
2017-10-25 21:50:00,2,3605,75,0.11,2,2,0,2,2783,4469,483,3646,71,78,3,77,0.05,0.30,0.07,0.10
2017-10-25 22:00:00,2,4627,76,0.10,2,2,0,2,2785,6114,936,4648,71,78,3,77,0.05,0.20,0.04,0.10
2017-10-25 22:10:00,2,5031,77,0.09,2,2,0,2,3182,6555,1066,5193,71,78,2,78,0.05,0.15,0.03,0.10
2017-10-25 22:20:00,2,4428,74,0.17,2,2,0,2,2889,6380,1148,4255,71,78,4,74,0.05,0.35,0.10,0.20
2017-10-25 22:30:00,2,5286,71,0.35,2,2,0,2,3910,6534,912,5354,71,71,0,71,0.10,0.70,0.16,0.33
2017-10-25 22:40:00,2,6904,72,0.12,2,2,0,2,3626,8785,1629,7288,71,77,2,71,0.00,0.35,0.10,0.08
2017-10-25 22:50:00,2,8182,78,0.06,2,2,0,2,5360,9593,1377,8736,77,78,0,78,0.00,0.15,0.05,0.05
2017-10-25 23:00:00,2,5473,76,0.12,2,2,0,2,2366,8516,2056,5190,71,78,2,77,0.05,0.25,0.07,0.10
2017-10-25 23:10:00,2,5226,72,0.08,2,2,0,2,1236,7831,2004,5506,71,77,2,71,0.00,0.25,0.07,0.05
2017-10-25 23:20:00,2,3874,78,0.04,2,2,0,2,2772,6630,1189,3582,77,78,0,78,0.00,0.15,0.05,0.03
2017-10-25 23:30:00,2,3388,78,0.10,2,2,0,2,2337,4404,712,3513,77,78,0,78,0.05,0.15,0.04,0.10
2017-10-25 23:40:00,2,3936,78,0.11,2,2,0,2,2342,5291,939,4114,77,78,0,78,0.05,0.25,0.06,0.10
2017-10-25 23:50:00,2,2780,71,0.12,2,2,0,2,1734,3761,573,2784,71,71,0,71,0.05,0.25,0.06,0.10
